AFL1306 UHSS-UHWW

Flight info

Callsign AFL1306
Flight time 1h 29m
Altitude 38000
Route KENOM1A KENOM B919 UTAGI W906 TUNET/K0809F340 W293 BEMOR/K0635F160 W293 DAGES DAGES2S
Aircraft A320/M-SDE3FGHIRWY/LB1

Departure

Time 2026-04-18 09:54
Airport Yuzhno-Sakhalinsk International Airport (UHSS)

Arrival

Time 2026-04-18 11:24
Airport Vladivostok International Airport (UHWW)
Time Latitude Longitude Altitude Speed Heading
2026-04-18 09:36 46.88859 142.72244 83 ft 0 kts 93°
2026-04-18 09:47 46.88859 142.72235 81 ft 4 kts 93°
2026-04-18 09:47 46.88860 142.72198 92 ft 4 kts 91°
2026-04-18 09:47 46.88861 142.72158 86 ft 4 kts 93°
2026-04-18 09:48 46.88862 142.72129 88 ft 2 kts 108°
2026-04-18 09:48 46.88866 142.72114 88 ft 2 kts 150°
2026-04-18 09:48 46.88876 142.72108 86 ft 2 kts 176°
2026-04-18 09:48 46.88887 142.72107 86 ft 2 kts 183°
2026-04-18 09:49 46.88895 142.72108 85 ft 0 kts 186°
2026-04-18 09:49 46.88881 142.72106 88 ft 7 kts 182°
2026-04-18 09:50 46.88837 142.72104 86 ft 6 kts 182°
2026-04-18 09:50 46.88792 142.72102 84 ft 7 kts 182°
2026-04-18 09:50 46.88741 142.72101 85 ft 8 kts 180°
2026-04-18 09:50 46.88694 142.72012 84 ft 14 kts 268°
2026-04-18 09:51 46.88696 142.71867 80 ft 14 kts 270°
2026-04-18 09:51 46.88657 142.71753 83 ft 13 kts 198°
2026-04-18 09:51 46.88567 142.71743 73 ft 13 kts 180°
2026-04-18 09:51 46.88488 142.71741 83 ft 10 kts 181°
2026-04-18 09:52 46.88422 142.71739 85 ft 13 kts 180°
2026-04-18 09:52 46.88335 142.71737 88 ft 11 kts 181°
2026-04-18 09:52 46.88256 142.71735 87 ft 15 kts 181°
2026-04-18 09:52 46.88139 142.71732 88 ft 18 kts 181°
2026-04-18 09:53 46.88014 142.71729 89 ft 16 kts 181°
2026-04-18 09:53 46.87926 142.71732 85 ft 9 kts 244°
2026-04-18 09:53 46.87965 142.71725 86 ft 9 kts 21°
2026-04-18 09:53 46.88032 142.71729 85 ft 10 kts
2026-04-18 09:54 46.88119 142.71732 87 ft 17 kts
2026-04-18 09:54 46.88434 142.71739 85 ft 89 kts
2026-04-18 09:54 46.89337 142.71762 93 ft 165 kts
2026-04-18 09:54 46.90535 142.71784 822 ft 179 kts 358°
2026-04-18 09:55 46.91880 142.71491 1461 ft 208 kts 347°
2026-04-18 09:55 46.93355 142.70985 1888 ft 229 kts 346°
2026-04-18 09:55 46.94977 142.70408 2370 ft 253 kts 345°
2026-04-18 09:55 46.96738 142.69790 3194 ft 264 kts 345°
2026-04-18 09:56 46.98542 142.69167 4164 ft 268 kts 345°
2026-04-18 09:56 47.00379 142.68545 5161 ft 272 kts 344°
2026-04-18 09:56 47.02210 142.67936 6167 ft 274 kts 343°
2026-04-18 09:56 47.04061 142.67243 7087 ft 275 kts 334°
2026-04-18 09:57 47.05653 142.65748 7960 ft 272 kts 311°
2026-04-18 09:57 47.06701 142.63473 8853 ft 270 kts 289°
2026-04-18 09:57 47.07071 142.60795 9757 ft 270 kts 268°
2026-04-18 09:57 47.06718 142.58072 10405 ft 280 kts 249°
2026-04-18 09:58 47.05958 142.55312 10706 ft 304 kts 246°
2026-04-18 09:58 47.05099 142.52344 10961 ft 327 kts 246°
2026-04-18 09:58 47.04194 142.49251 11417 ft 340 kts 246°
2026-04-18 09:58 47.03256 142.46040 12141 ft 345 kts 246°
2026-04-18 09:59 47.02309 142.42772 12898 ft 350 kts 246°
2026-04-18 09:59 47.01350 142.39449 13558 ft 355 kts 246°
2026-04-18 09:59 47.00388 142.36102 13718 ft 356 kts 246°
2026-04-18 10:00 46.98465 142.29397 13747 ft 356 kts 246°
2026-04-18 10:00 46.97972 142.27677 13743 ft 356 kts 247°
2026-04-18 10:00 46.97529 142.26136 13734 ft 356 kts 246°
2026-04-18 10:00 46.97416 142.25743 13739 ft 356 kts 246°
2026-04-18 10:01 46.96560 142.22747 13450 ft 359 kts 247°
2026-04-18 10:01 46.95595 142.19399 13602 ft 356 kts 246°
2026-04-18 10:01 46.94624 142.16054 13721 ft 357 kts 246°
2026-04-18 10:01 46.93648 142.12699 13733 ft 357 kts 247°
2026-04-18 10:02 46.92687 142.09398 13734 ft 357 kts 246°
2026-04-18 10:02 46.91717 142.06051 13730 ft 357 kts 247°
2026-04-18 10:02 46.90745 142.02700 13723 ft 357 kts 247°
2026-04-18 10:02 46.89774 141.99355 13727 ft 358 kts 247°
2026-04-18 10:03 46.88798 141.96002 13727 ft 358 kts 247°
2026-04-18 10:03 46.87822 141.92657 13725 ft 358 kts 247°
2026-04-18 10:03 46.86844 141.89318 13721 ft 357 kts 247°
2026-04-18 10:03 46.86194 141.87107 13725 ft 357 kts 247°
2026-04-18 10:04 46.85212 141.83769 13726 ft 358 kts 247°
2026-04-18 10:04 46.84380 141.80350 13724 ft 358 kts 256°
2026-04-18 10:04 46.83998 141.76727 14036 ft 363 kts 265°
2026-04-18 10:04 46.83805 141.73040 14789 ft 364 kts 265°
2026-04-18 10:05 46.83588 141.69375 15459 ft 368 kts 264°
2026-04-18 10:05 46.83353 141.65624 16110 ft 372 kts 264°
2026-04-18 10:05 46.83114 141.61838 16738 ft 376 kts 264°
2026-04-18 10:05 46.82872 141.58013 17377 ft 379 kts 264°
2026-04-18 10:06 46.82630 141.54148 17991 ft 383 kts 264°
2026-04-18 10:06 46.82391 141.50287 18519 ft 387 kts 264°
2026-04-18 10:06 46.82149 141.46352 19058 ft 390 kts 264°
2026-04-18 10:06 46.81907 141.42389 19599 ft 392 kts 264°
2026-04-18 10:07 46.81660 141.38392 20142 ft 395 kts 264°
2026-04-18 10:07 46.81415 141.34425 20660 ft 398 kts 265°
2026-04-18 10:07 46.81165 141.30377 21169 ft 401 kts 265°
2026-04-18 10:07 46.80922 141.26301 21689 ft 404 kts 265°
2026-04-18 10:08 46.80683 141.22187 22199 ft 407 kts 265°
2026-04-18 10:08 46.80448 141.18100 22690 ft 410 kts 265°
2026-04-18 10:08 46.80211 141.13944 23170 ft 412 kts 265°
2026-04-18 10:08 46.79973 141.09762 23592 ft 415 kts 265°
2026-04-18 10:09 46.79730 141.05552 24003 ft 417 kts 265°
2026-04-18 10:09 46.79480 141.01329 24405 ft 419 kts 265°
2026-04-18 10:09 46.79224 140.97079 24808 ft 420 kts 265°
2026-04-18 10:09 46.78963 140.92823 25222 ft 422 kts 265°
2026-04-18 10:10 46.78701 140.88545 25625 ft 424 kts 265°
2026-04-18 10:10 46.78438 140.84298 26003 ft 426 kts 265°
2026-04-18 10:10 46.78168 140.79964 26384 ft 427 kts 265°
2026-04-18 10:10 46.77898 140.75629 26758 ft 429 kts 265°
2026-04-18 10:11 46.77627 140.71287 27129 ft 430 kts 265°
2026-04-18 10:11 46.77353 140.66933 27484 ft 432 kts 265°
2026-04-18 10:11 46.77082 140.62609 27834 ft 433 kts 265°
2026-04-18 10:11 46.76809 140.58210 28193 ft 435 kts 265°
2026-04-18 10:12 46.76531 140.53812 28536 ft 436 kts 265°
2026-04-18 10:12 46.76250 140.49393 28953 ft 435 kts 265°
2026-04-18 10:12 46.75965 140.44996 29462 ft 433 kts 265°
2026-04-18 10:12 46.75682 140.40683 29941 ft 431 kts 264°
2026-04-18 10:13 46.75394 140.36332 30351 ft 429 kts 265°
2026-04-18 10:13 46.75103 140.31995 30755 ft 428 kts 265°
2026-04-18 10:13 46.74818 140.27733 31129 ft 426 kts 265°
2026-04-18 10:13 46.74531 140.23440 31534 ft 425 kts 265°
2026-04-18 10:14 46.74245 140.19153 31927 ft 423 kts 265°
2026-04-18 10:14 46.73960 140.14882 32314 ft 422 kts 265°
2026-04-18 10:14 46.73668 140.10617 32695 ft 421 kts 265°
2026-04-18 10:14 46.73356 140.06365 33086 ft 420 kts 265°
2026-04-18 10:15 46.72957 140.02199 33467 ft 420 kts 259°
2026-04-18 10:15 46.72118 139.98098 33716 ft 423 kts 251°
2026-04-18 10:15 46.70867 139.94203 33758 ft 424 kts 246°
2026-04-18 10:16 46.68219 139.86509 33765 ft 424 kts 246°
2026-04-18 10:16 46.65601 139.78866 33762 ft 423 kts 246°
2026-04-18 10:17 46.62968 139.71185 33773 ft 423 kts 246°
2026-04-18 10:17 46.60353 139.63576 33770 ft 423 kts 246°
2026-04-18 10:18 46.57715 139.55925 33771 ft 422 kts 246°
2026-04-18 10:18 46.55079 139.48295 33772 ft 422 kts 246°
2026-04-18 10:19 46.52448 139.40718 33783 ft 422 kts 246°
2026-04-18 10:19 46.49798 139.33108 33775 ft 422 kts 246°
2026-04-18 10:20 46.47144 139.25500 33790 ft 421 kts 246°
2026-04-18 10:20 46.44506 139.17971 33789 ft 421 kts 246°
2026-04-18 10:21 46.41782 139.10466 33796 ft 422 kts 241°
2026-04-18 10:21 46.38258 139.03592 33790 ft 424 kts 237°
2026-04-18 10:22 46.34682 138.96785 33795 ft 424 kts 237°
2026-04-18 10:22 46.31120 138.90017 33792 ft 424 kts 237°
2026-04-18 10:23 46.27526 138.83226 33796 ft 424 kts 237°
2026-04-18 10:23 46.23956 138.76491 33799 ft 423 kts 237°
2026-04-18 10:24 46.20371 138.69738 33799 ft 423 kts 237°
2026-04-18 10:24 46.16780 138.62997 33801 ft 423 kts 237°
2026-04-18 10:25 46.13187 138.56265 33800 ft 423 kts 237°
2026-04-18 10:25 46.09611 138.49586 33807 ft 423 kts 237°
2026-04-18 10:26 46.06001 138.42864 33805 ft 423 kts 237°
2026-04-18 10:26 46.02422 138.36206 33814 ft 423 kts 237°
2026-04-18 10:27 45.98817 138.29513 33817 ft 423 kts 237°
2026-04-18 10:27 45.95210 138.22832 33814 ft 422 kts 236°
2026-04-18 10:28 45.91597 138.16161 33817 ft 422 kts 237°
2026-04-18 10:28 45.88003 138.09547 33813 ft 422 kts 236°
2026-04-18 10:29 45.84292 138.03003 33815 ft 422 kts 235°
2026-04-18 10:29 45.80533 137.96545 33810 ft 422 kts 235°
2026-04-18 10:30 45.76802 137.90103 33813 ft 421 kts 235°
2026-04-18 10:30 45.73074 137.83627 33813 ft 421 kts 235°
2026-04-18 10:31 45.69348 137.77169 33818 ft 420 kts 235°
2026-04-18 10:31 45.65642 137.70760 33816 ft 420 kts 235°
2026-04-18 10:32 45.61904 137.64330 33824 ft 420 kts 234°
2026-04-18 10:32 45.58170 137.57911 33824 ft 419 kts 235°
2026-04-18 10:33 45.54464 137.51541 33833 ft 419 kts 234°
2026-04-18 10:33 45.50711 137.45137 33828 ft 418 kts 234°
2026-04-18 10:34 45.47004 137.38808 33834 ft 417 kts 234°
2026-04-18 10:34 45.43286 137.32472 33828 ft 416 kts 234°
2026-04-18 10:35 45.39562 137.26137 33838 ft 416 kts 234°
2026-04-18 10:35 45.35842 137.19827 33834 ft 415 kts 234°
2026-04-18 10:36 45.32148 137.13574 33840 ft 414 kts 234°
2026-04-18 10:36 45.28454 137.07342 33842 ft 413 kts 234°
2026-04-18 10:37 45.24750 137.01104 33845 ft 412 kts 234°
2026-04-18 10:37 45.21047 136.94879 33846 ft 411 kts 234°
2026-04-18 10:38 45.17357 136.88680 33849 ft 411 kts 234°
2026-04-18 10:38 45.13680 136.82531 33847 ft 410 kts 234°
2026-04-18 10:39 45.09986 136.76358 33859 ft 409 kts 234°
2026-04-18 10:39 45.06330 136.70268 33854 ft 408 kts 234°
2026-04-18 10:40 45.02652 136.64151 33866 ft 407 kts 234°
2026-04-18 10:40 44.98992 136.58071 33863 ft 405 kts 234°
2026-04-18 10:41 44.95336 136.52019 33870 ft 404 kts 234°
2026-04-18 10:41 44.91700 136.46029 33869 ft 402 kts 234°
2026-04-18 10:42 44.88060 136.40032 33867 ft 401 kts 234°
2026-04-18 10:42 44.84425 136.34051 33866 ft 401 kts 234°
2026-04-18 10:43 44.80958 136.27945 33870 ft 396 kts 242°
2026-04-18 10:43 44.78179 136.21322 33867 ft 395 kts 242°
2026-04-18 10:44 44.75369 136.14662 33865 ft 395 kts 242°
2026-04-18 10:44 44.72554 136.08020 33866 ft 395 kts 242°
2026-04-18 10:45 44.69756 136.01430 33863 ft 395 kts 242°
2026-04-18 10:45 44.66932 135.94792 33866 ft 395 kts 242°
2026-04-18 10:46 44.64109 135.88166 33864 ft 395 kts 242°
2026-04-18 10:46 44.61273 135.81523 33880 ft 396 kts 242°
2026-04-18 10:47 44.58454 135.74936 33886 ft 396 kts 242°
2026-04-18 10:47 44.55612 135.68317 33896 ft 396 kts 241°
2026-04-18 10:48 44.52758 135.61685 33896 ft 396 kts 241°
2026-04-18 10:48 44.49924 135.55123 33904 ft 396 kts 241°
2026-04-18 10:49 44.47071 135.48510 33912 ft 396 kts 241°
2026-04-18 10:49 44.44229 135.41950 33925 ft 396 kts 240°
2026-04-18 10:50 44.41830 135.36436 33930 ft 396 kts 240°
2026-04-18 10:50 44.38983 135.29906 33940 ft 395 kts 240°
2026-04-18 10:51 44.36125 135.23348 33943 ft 395 kts 240°
2026-04-18 10:51 44.32794 135.15723 33942 ft 394 kts 240°
2026-04-18 10:52 44.30405 135.10280 33943 ft 394 kts 240°
2026-04-18 10:52 44.27536 135.03745 33944 ft 394 kts 240°
2026-04-18 10:53 44.24755 134.97137 33951 ft 393 kts 242°
2026-04-18 10:53 44.22101 134.90467 33955 ft 393 kts 242°
2026-04-18 10:54 44.19462 134.83841 33957 ft 393 kts 242°
2026-04-18 10:54 44.16783 134.77193 33962 ft 393 kts 241°
2026-04-18 10:55 44.14077 134.70560 33965 ft 393 kts 241°
2026-04-18 10:55 44.11375 134.63964 33947 ft 397 kts 247°
2026-04-18 10:56 44.08612 134.57204 33964 ft 402 kts 247°
2026-04-18 10:56 44.05851 134.50449 33967 ft 403 kts 247°
2026-04-18 10:57 44.03066 134.43689 33969 ft 403 kts 247°
2026-04-18 10:57 44.00277 134.36933 33978 ft 402 kts 247°
2026-04-18 10:58 43.97494 134.30186 33991 ft 402 kts 247°
2026-04-18 10:58 43.94724 134.23495 33978 ft 402 kts 247°
2026-04-18 10:59 43.91929 134.16763 33997 ft 402 kts 247°
2026-04-18 10:59 43.89149 134.10080 33994 ft 401 kts 247°
2026-04-18 11:00 43.86349 134.03347 33984 ft 401 kts 247°
2026-04-18 11:00 43.83565 133.96679 33983 ft 402 kts 247°
2026-04-18 11:01 43.80751 133.89968 33992 ft 402 kts 247°
2026-04-18 11:01 43.78392 133.83102 34014 ft 391 kts 259°
2026-04-18 11:02 43.76998 133.72123 34010 ft 385 kts 265°
2026-04-18 11:02 43.76149 133.64794 34023 ft 385 kts 265°
2026-04-18 11:03 43.75296 133.57467 34012 ft 385 kts 265°
2026-04-18 11:03 43.74452 133.50196 34004 ft 385 kts 265°
2026-04-18 11:04 43.73603 133.42873 33969 ft 386 kts 265°
2026-04-18 11:04 43.73177 133.39207 33641 ft 386 kts 265°
2026-04-18 11:04 43.72751 133.35576 32836 ft 387 kts 265°
2026-04-18 11:05 43.72315 133.31895 31962 ft 388 kts 265°
2026-04-18 11:05 43.71875 133.28198 31050 ft 390 kts 265°
2026-04-18 11:05 43.71434 133.24471 30021 ft 396 kts 266°
2026-04-18 11:05 43.70988 133.20693 28832 ft 400 kts 266°
2026-04-18 11:06 43.70539 133.16874 27659 ft 403 kts 266°
2026-04-18 11:06 43.70084 133.13026 26530 ft 406 kts 266°
2026-04-18 11:06 43.69625 133.09209 25456 ft 406 kts 266°
2026-04-18 11:06 43.69159 133.05428 24432 ft 392 kts 266°
2026-04-18 11:07 43.68706 133.01786 23587 ft 376 kts 266°
2026-04-18 11:07 43.68268 132.98238 22746 ft 372 kts 266°
2026-04-18 11:07 43.67841 132.94719 22018 ft 369 kts 266°
2026-04-18 11:07 43.67419 132.91238 21334 ft 365 kts 266°
2026-04-18 11:08 43.67003 132.87828 20667 ft 364 kts 266°
2026-04-18 11:08 43.66584 132.84392 20001 ft 361 kts 266°
2026-04-18 11:08 43.66162 132.80986 19351 ft 359 kts 265°
2026-04-18 11:08 43.65515 132.77640 18722 ft 361 kts 258°
2026-04-18 11:09 43.64722 132.74344 18065 ft 359 kts 258°
2026-04-18 11:09 43.63938 132.71080 17438 ft 355 kts 258°
2026-04-18 11:09 43.63173 132.67901 16872 ft 351 kts 258°
2026-04-18 11:09 43.62406 132.64705 16334 ft 349 kts 258°
2026-04-18 11:10 43.61646 132.61531 15815 ft 347 kts 257°
2026-04-18 11:10 43.60887 132.58371 15296 ft 346 kts 257°
2026-04-18 11:10 43.60127 132.55226 14777 ft 345 kts 257°
2026-04-18 11:10 43.59370 132.52099 14262 ft 344 kts 257°
2026-04-18 11:11 43.58614 132.48979 13701 ft 342 kts 257°
2026-04-18 11:11 43.57862 132.45868 13134 ft 341 kts 257°
2026-04-18 11:11 43.57112 132.42773 12545 ft 339 kts 256°
2026-04-18 11:11 43.56373 132.39737 11964 ft 338 kts 256°
2026-04-18 11:12 43.55625 132.36668 11352 ft 335 kts 257°
2026-04-18 11:12 43.54889 132.33659 11082 ft 323 kts 257°
2026-04-18 11:12 43.54180 132.30791 10949 ft 308 kts 256°
2026-04-18 11:12 43.53503 132.28058 10822 ft 295 kts 257°
2026-04-18 11:13 43.52856 132.25435 10704 ft 283 kts 257°
2026-04-18 11:13 43.52236 132.22909 10567 ft 273 kts 257°
2026-04-18 11:13 43.51637 132.20452 10312 ft 268 kts 258°
2026-04-18 11:13 43.51053 132.18054 10067 ft 266 kts 258°
2026-04-18 11:14 43.50464 132.15636 9897 ft 265 kts 257°
2026-04-18 11:14 43.49876 132.13223 9762 ft 266 kts 257°
2026-04-18 11:14 43.49284 132.10815 9624 ft 265 kts 257°
2026-04-18 11:14 43.48542 132.08480 9485 ft 264 kts 247°
2026-04-18 11:15 43.47678 132.06351 9346 ft 251 kts 248°
2026-04-18 11:15 43.46841 132.04283 9134 ft 244 kts 248°
2026-04-18 11:15 43.46023 132.02245 8806 ft 242 kts 248°
2026-04-18 11:15 43.45207 132.00213 8379 ft 243 kts 247°
2026-04-18 11:16 43.44388 131.98173 8003 ft 242 kts 247°
2026-04-18 11:16 43.43569 131.96142 7608 ft 241 kts 246°
2026-04-18 11:16 43.42772 131.94173 7287 ft 230 kts 246°
2026-04-18 11:16 43.42001 131.92266 6982 ft 228 kts 246°
2026-04-18 11:17 43.41227 131.90347 6666 ft 229 kts 246°
2026-04-18 11:17 43.40418 131.88468 6333 ft 233 kts 237°
2026-04-18 11:17 43.39184 131.87028 5994 ft 234 kts 212°
2026-04-18 11:17 43.37633 131.86410 5682 ft 234 kts 187°
2026-04-18 11:18 43.36019 131.86518 5376 ft 229 kts 179°
2026-04-18 11:18 43.34452 131.86681 5077 ft 224 kts 178°
2026-04-18 11:18 43.32917 131.86835 4803 ft 215 kts 178°
2026-04-18 11:18 43.31504 131.87296 4500 ft 207 kts 152°
2026-04-18 11:19 43.30502 131.88612 4235 ft 196 kts 118°
2026-04-18 11:19 43.30127 131.90337 3840 ft 192 kts 87°
2026-04-18 11:19 43.30403 131.92063 3506 ft 180 kts 58°
2026-04-18 11:19 43.30990 131.93517 3264 ft 169 kts 55°
2026-04-18 11:20 43.31535 131.94858 3032 ft 153 kts 55°
2026-04-18 11:20 43.32032 131.96079 2821 ft 142 kts 54°
2026-04-18 11:20 43.32517 131.97267 2637 ft 142 kts 54°
2026-04-18 11:20 43.32999 131.98448 2443 ft 141 kts 54°
2026-04-18 11:21 43.33476 131.99623 2256 ft 140 kts 54°
2026-04-18 11:21 43.33944 132.00773 2066 ft 139 kts 55°
2026-04-18 11:21 43.34416 132.01934 1879 ft 138 kts 55°
2026-04-18 11:21 43.34884 132.03087 1692 ft 138 kts 55°
2026-04-18 11:22 43.35353 132.04242 1502 ft 138 kts 56°
2026-04-18 11:22 43.35815 132.05407 1302 ft 139 kts 58°
2026-04-18 11:22 43.36279 132.06545 1125 ft 138 kts 56°
2026-04-18 11:22 43.36753 132.07695 940 ft 138 kts 58°
2026-04-18 11:23 43.37225 132.08852 772 ft 139 kts 58°
2026-04-18 11:23 43.37698 132.10005 606 ft 138 kts 60°
2026-04-18 11:23 43.38154 132.11165 409 ft 137 kts 59°
2026-04-18 11:23 43.38624 132.12311 233 ft 138 kts 59°
2026-04-18 11:24 43.39084 132.13464 80 ft 135 kts 60°
2026-04-18 11:24 43.39474 132.14425 65 ft 93 kts 61°
2026-04-18 11:24 43.39705 132.14993 65 ft 43 kts 61°
2026-04-18 11:24 43.39797 132.15222 66 ft 25 kts 61°
2026-04-18 11:25 43.39882 132.15436 62 ft 26 kts 63°
2026-04-18 11:25 43.39973 132.15658 64 ft 27 kts 62°
2026-04-18 11:25 43.40066 132.15888 63 ft 28 kts 60°
2026-04-18 11:25 43.40160 132.16122 63 ft 28 kts 61°
2026-04-18 11:26 43.40252 132.16351 68 ft 28 kts 61°
2026-04-18 11:26 43.40347 132.16584 60 ft 28 kts 61°
2026-04-18 11:26 43.40426 132.16778 61 ft 15 kts 64°
2026-04-18 11:26 43.40387 132.16888 69 ft 13 kts 151°
2026-04-18 11:27 43.40322 132.16937 63 ft 0 kts 150°
2026-04-18 11:27 43.40321 132.16938 64 ft 2 kts 150°
2026-04-18 11:27 43.40272 132.16974 68 ft 9 kts 152°
2026-04-18 11:28 43.40222 132.17010 65 ft 8 kts 152°
2026-04-18 11:28 43.40169 132.17050 66 ft 15 kts 150°
2026-04-18 11:28 43.40091 132.17096 64 ft 9 kts 181°
2026-04-18 11:28 43.40051 132.17047 65 ft 8 kts 238°
2026-04-18 11:29 43.40027 132.16987 63 ft 7 kts 241°
2026-04-18 11:29 43.39989 132.16893 70 ft 15 kts 242°
2026-04-18 11:29 43.39940 132.16772 64 ft 14 kts 240°
2026-04-18 11:29 43.39899 132.16671 62 ft 10 kts 241°
2026-04-18 11:30 43.39872 132.16602 65 ft 7 kts 242°
2026-04-18 11:30 43.39850 132.16545 66 ft 6 kts 242°
2026-04-18 11:30 43.39820 132.16517 68 ft 5 kts 184°
2026-04-18 11:30 43.39772 132.16546 63 ft 6 kts 150°
2026-04-18 11:31 43.39759 132.16556 66 ft 0 kts 151°
2026-04-18 11:31 43.39757 132.16557 67 ft 1 kts 151°
2026-04-18 11:31 43.39750 132.16562 65 ft 1 kts 153°
2026-04-18 11:31 43.39747 132.16564 62 ft 0 kts 152°